FW8676 Weather Reports


time (UTC)temp
C
wind
direction
speed
KPH
gust
KPH
rain 1hr
cm
rain 24hr
cm
rain mn
cm
humidity
%
barometer
mb
20260504214555 22 214 4.8 24.1 0.00 0.00 0.00 40 1010.9
20260504213051 22 243 4.8 27.4 0.00 0.00 0.00 40 1011.1
20260504211558 22 168 6.4 20.9 0.00 0.00 0.00 38 1011.0
20260504210109 22 176 6.4 16.1 0.00 0.00 0.00 38 1011.0
20260504204602 22 193 8.0 19.3 0.00 0.00 0.00 38 1010.9
20260504203058 22 175 6.4 19.3 0.00 0.00 0.00 38 1010.9
20260504201556 22 132 8.0 20.9 0.00 0.00 0.00 38 1011.3
20260504200100 22 220 6.4 22.5 0.00 0.00 0.00 38 1011.5
20260504194608 22 145 6.4 14.5 0.00 0.00 0.00 38 1011.7
20260504193055 22 181 4.8 16.1 0.00 0.00 0.00 37 1012.0
20260504191554 22 166 6.4 24.1 0.00 0.00 0.00 38 1012.2
20260504190117 22 236 4.8 17.7 0.00 0.00 0.00 39 1012.2
20260504184558 22 216 3.2 19.3 0.00 0.00 0.00 40 1012.5
20260504183056 21 154 8.0 16.1 0.00 0.00 0.00 39 1012.6
20260504181558 21 241 4.8 20.9 0.00 0.00 0.00 38 1012.9
20260504180144 21 174 3.2 14.5 0.00 0.00 0.00 38 1012.9
20260504174556 21 168 6.4 16.1 0.00 0.00 0.00 36 1013.2
20260504173113 21 129 9.7 30.6 0.00 0.00 0.00 37 1013.4
20260504171556 20 258 3.2 25.7 0.00 0.00 0.00 39 1013.6
20260504140109 16 179 6.4 17.7 0.00 0.00 0.00 55 1014.9
20260504120112 12 181 6.4 20.9 0.00 0.00 0.00 76 1015.5
20260504081555 8 0 0.0 8.0 0.00 0.00 0.00 76 1016.0
20260504050136 10 190 0.0 8.0 0.00 0.00 0.00 60 1015.7
20260504044558 10 0 1.6 6.4 0.00 0.00 0.00 60 1015.8
20260504043058 9 163 1.6 4.8 0.00 0.00 0.00 61 1015.7
20260504041552 8 189 1.6 8.0 0.00 0.00 0.00 63 1015.6
20260504034553 7 0 0.0 1.6 0.00 0.00 0.00 66 1015.3
20260504033057 7 0 0.0 0.0 0.00 0.00 0.00 67 1015.3
20260504031632 7 0 0.0 1.6 0.00 0.00 0.00 67 1015.2
20260504030054 7 0 0.0 0.0 0.00 0.00 0.00 68 1015.1
20260504024559 7 0 0.0 0.0 0.00 0.00 0.00 67 1015.1
20260504023055 7 0 0.0 0.0 0.00 0.00 0.00 68 1015.1
20260504021603 8 0 0.0 0.0 0.00 0.00 0.00 68 1015.2
20260504020051 8 0 0.0 0.0 0.00 0.00 0.00 65 1015.1
20260504014552 8 0 0.0 0.0 0.00 0.00 0.00 64 1015.3
20260504013102 8 0 0.0 0.0 0.00 0.00 0.00 62 1015.1
20260504011600 9 0 0.0 0.0 0.00 0.00 0.00 59 1014.9
20260504010113 10 0 0.0 0.0 0.00 0.00 0.00 56 1014.9
20260504004558 10 0 0.0 0.0 0.00 0.00 0.00 56 1014.7
20260504003055 11 0 0.0 0.0 0.00 0.00 0.00 51 1014.5
20260504001609 12 0 0.0 0.0 0.00 0.00 0.00 48 1014.4
20260504000059 13 0 0.0 1.6 0.00 0.00 0.00 45 1014.1
20260503234603 14 0 0.0 3.2 0.00 0.00 0.00 41 1014.1
20260503233058 15 232 0.0 3.2 0.00 0.00 0.00 39 1014.0
20260503231556 15 234 1.6 11.3 0.00 0.00 0.00 38 1014.0
20260503230059 15 256 0.0 4.8 0.00 0.00 0.00 39 1013.8
20260503224558 15 283 1.6 8.0 0.00 0.00 0.00 36 1013.8
20260503223101 15 335 1.6 11.3 0.00 0.00 0.00 38 1013.9
20260503221559 15 244 1.6 8.0 0.00 0.00 0.00 36 1014.0
20260503220054 15 0 3.2 11.3 0.00 0.00 0.00 36 1013.9